Wind_Speed
3 5 1 2 3 2 2 2 3 1 3 3 7 8 9 14 9 9 10 10 11 11 23 27 24 19 14 12 11 10 10 8 5 5 3 5 2 2 4 3 5 8 9 9
3 2 3 2 2 1 1 3 4 1 4 4 6 10 10 15 17 16 13 10 11 8 8 21 25 22 19 16 14 14 13 10 7 6 4 3 4 1 1 2 5 8 8 8
4 4 1 0 2 2 2 1 1 2 2 3 6 8 3 6 5 7 8 7 9 13 11 15 26 26 22 20 21 19 14 12 8 7 6 5 4 7 6 6 6 8 7 9
3 2 1 1 1 1 2 1 2 3 4 2 3 5 5 5 8 9 11 10 10 10 12 22 25 29 27 23 21 18 17 14 11 9 9 6 5 5 4 6 7 8 7 8
2 2 1 1 1 3 3 2 1 1 0 3 2 3 7 3 7 10 12 12 11 10 14 15 23 31 30 26 23 22 18 14 13 11 9 8 8 5 5 6 7 8 6 8
2 1 2 1 1 1 1 3 2 3 2 2 4 5 6 5 8 5 6 13 13 11 10 18 29 32 30 27 26 22 18 17 15 12 11 10 10 8 8 9 9 8 8 7
1 0 1 1 1 3 3 4 3 2 3 5 1 2 9 7 6 7 11 12 11 10 10 10 18 24 29 29 27 22 21 19 16 15 13 12 11 10 10 10 9 9 11 9
4 4 0 1 1 2 2 4 4 3 2 4 4 6 5 1 1 4 6 10 10 10 10 13 22 30 31 30 28 25 23 20 20 18 15 13 12 13 13 11 10 11 12 10
2 1 0 2 2 2 1 1 3 1 2 2 4 6 5 1 2 1 5 8 11 11 11 14 22 32 34 34 32 28 25 23 22 21 18 17 16 16 14 12 12 13 12 10
2 1 3 1 1 1 2 2 1 2 1 4 5 6 5 5 10 7 8 9 9 9 10 10 20 29 35 35 32 29 26 26 24 23 21 20 18 16 14 14 14 13 12 11
2 4 1 2 4 6 1 2 2 2 4 4 2 6 5 5 7 10 11 11 10 10 11 11 18 28 35 34 32 32 30 28 26 24 23 21 20 18 16 16 15 14 12 12
3 4 3 6 2 2 3 5 6 4 4 2 4 6 5 3 5 9 11 12 10 12 12 11 20 28 31 34 33 35 33 32 30 27 25 24 21 20 19 17 15 13 13 13
3 2 1 4 2 3 4 4 4 4 3 5 5 6 3 4 6 5 7 8 9 11 9 9 14 21 26 32 35 36 35 34 31 29 27 25 23 22 21 19 15 14 15 14
1 3 6 6 5 4 4 5 5 5 4 4 7 8 14 8 8 9 9 10 9 10 14 12 10 19 25 31 35 35 36 35 32 30 29 28 26 25 23 19 17 16 15 15
4 4 3 5 6 5 6 6 9 9 8 8 17 8 16 6 8 10 6 7 8 9 10 12 13 15 23 28 32 36 36 35 33 32 31 31 28 24 22 20 19 17 16 15
2 3 2 4 7 8 10 10 10 14 11 9 13 20 19 18 6 6 9 8 10 9 13 13 12 16 22 28 31 35 37 37 35 34 34 31 27 25 24 22 21 18 17 16
7 5 3 5 6 4 11 10 12 9 7 8 8 17 7 7 8 6 8 8 8 7 8 9 13 20 26 30 34 36 39 37 36 37 35 33 30 28 26 24 22 20 19 17
7 5 4 4 2 7 9 4 6 12 12 12 9 9 7 5 3 5 3 5 8 7 6 8 14 20 29 34 36 37 37 37 38 38 37 34 31 29 27 25 25 22 19 19
5 5 1 3 5 8 15 10 7 7 11 8 13 9 2 2 4 3 2 4 4 5 9 13 17 30 32 35 36 36 35 37 38 39 38 36 33 31 29 29 27 23 21 20
5 5 5 3 4 7 6 2 2 3 8 6 7 7 4 3 2 4 5 5 7 9 13 15 13 16 26 31 32 34 35 37 37 37 40 37 34 32 32 31 27 24 23 21
3 1 7 5 5 8 9 4 2 4 6 4 6 5 6 4 5 4 6 7 5 6 10 11 10 11 20 25 29 32 32 36 40 38 37 35 34 33 32 30 27 25 23 21
9 9 4 3 3 11 7 4 8 6 1 3 3 4 5 5 5 5 5 6 7 9 8 7 9 12 13 19 27 30 32 37 35 34 34 33 33 33 32 30 28 25 23 23
6 8 6 10 8 5 8 7 7 5 5 4 4 5 4 4 4 4 4 5 6 10 12 12 12 13 14 18 27 30 36 32 32 31 32 33 32 33 32 31 29 26 25 24
5 5 5 4 6 10 8 6 5 8 8 6 5 5 3 5 5 6 5 6 5 11 14 15 14 16 20 19 25 34 32 30 31 32 33 33 33 33 33 31 31 30 29 27
6 8 6 4 6 5 6 7 7 9 6 5 6 6 7 6 7 7 6 7 10 15 18 18 18 22 26 23 25 29 32 30 31 32 33 34 34 33 34 34 34 32 32 30
6 7 6 7 6 7 4 6 6 7 6 7 6 5 6 6 8 6 7 15 17 18 22 19 21 22 29 28 26 27 29 31 33 31 31 31 31 34 33 32 31 31 31 27
Wind_Direction
226 70 181 204 165 182 223 260 302 162 203 191 233 250 226 201 197 206 210 205 201 201 202 185 176 176 185 196 206 198 193 190 216 195 199 202 142 229 290 313 349 343 350 359
30 166 207 178 189 58 319 306 321 115 198 183 279 265 246 180 204 201 199 209 203 202 170 178 174 180 192 206 206 200 210 215 212 203 215 212 211 289 250 251 319 330 341 346
167 199 187 134 324 310 39 244 114 234 284 259 355 299 239 195 181 202 214 198 201 188 175 177 179 186 192 203 203 199 204 199 209 214 192 199 245 246 248 277 306 329 324 337
73 294 349 340 315 39 287 18 32 355 40 268 114 288 296 196 199 207 212 210 205 195 181 183 186 188 193 199 202 206 199 207 205 214 201 199 216 238 251 291 306 316 309 323
247 179 247 302 2 343 244 28 4 346 353 19 268 89 267 96 236 221 217 216 210 202 184 189 190 191 196 197 201 195 202 201 200 215 215 210 217 232 255 268 278 299 298 309
141 337 46 120 112 68 29 345 3 15 81 6 232 141 276 193 214 237 203 210 204 196 197 188 193 194 193 194 194 200 205 204 214 222 219 221 223 235 251 260 270 292 299 306
28 45 68 76 31 349 57 65 342 351 2 221 353 99 247 243 257 219 199 199 200 190 181 177 174 182 188 188 191 198 199 205 209 216 224 224 232 238 250 260 268 279 290 294
178 311 210 342 152 172 226 138 152 275 252 272 359 237 253 299 94 39 177 181 181 190 186 183 180 183 188 189 192 198 205 209 208 220 223 224 232 240 250 250 261 264 283 290
33 327 255 46 354 100 302 187 180 167 337 27 242 274 292 256 294 100 141 170 195 194 190 190 185 187 189 194 199 205 209 212 212 216 217 224 232 237 243 247 256 269 277 284
205 137 214 260 29 295 219 275 97 8 220 262 287 282 245 250 244 229 229 215 219 210 195 193 189 190 194 198 203 208 212 211 212 215 222 227 233 236 239 245 255 265 273 279
145 118 216 67 205 192 143 266 259 137 157 182 289 276 223 246 239 214 228 226 217 214 208 198 194 195 199 202 203 205 208 211 213 216 220 227 232 231 235 244 253 261 269 274
205 148 205 227 262 281 233 200 154 119 263 223 149 276 251 256 212 203 228 223 216 214 208 198 192 193 196 201 205 207 207 209 213 216 220 227 231 230 236 239 249 255 262 270
176 231 19 318 328 321 248 220 185 131 85 227 145 261 296 292 320 302 283 250 228 215 201 194 188 193 196 200 205 208 209 211 213 213 216 224 228 228 234 238 243 248 259 268
79 210 180 194 205 157 192 209 203 147 131 214 227 269 277 284 296 302 288 275 249 213 203 195 193 199 198 201 204 208 211 213 215 217 219 222 224 228 234 238 239 244 254 263
145 222 234 246 247 206 223 195 194 197 211 190 266 223 261 274 275 289 278 287 277 225 208 201 198 200 201 201 205 210 213 213 216 218 219 223 227 231 233 235 238 245 251 257
179 252 265 273 266 259 261 232 216 219 238 256 265 278 278 271 273 279 296 300 294 253 219 207 202 196 200 203 205 209 214 216 215 218 221 224 227 229 232 234 239 244 248 254
159 170 133 256 239 291 289 217 213 220 201 197 214 249 252 272 303 320 311 297 285 300 228 203 204 203 205 206 207 208 214 216 215 219 222 223 225 227 232 235 238 242 245 252
162 164 144 223 26 237 256 258 227 215 238 211 249 249 218 252 275 272 298 302 315 301 291 228 214 212 212 214 212 217 216 215 216 219 222 223 225 227 229 230 237 242 244 249
184 136 279 183 211 295 296 272 190 186 264 215 223 246 200 11 349 290 255 290 289 295 303 293 256 226 222 218 217 215 214 216 215 216 220 223 222 226 227 229 235 238 242 247
87 80 158 128 196 237 236 231 143 102 279 229 175 175 156 95 44 264 291 295 301 313 318 314 310 243 229 222 216 210 209 210 213 216 222 225 225 227 228 231 234 237 241 248
134 80 192 210 236 276 248 193 153 201 262 187 159 171 165 179 197 226 299 315 307 292 312 320 306 268 239 226 212 209 209 211 220 222 226 227 226 227 232 232 234 236 237 244
166 171 189 136 184 266 181 85 181 217 318 180 190 195 185 224 270 269 282 302 317 311 303 301 280 274 259 232 217 215 217 226 225 226 228 229 228 227 230 230 231 232 235 238
208 188 183 184 203 220 199 203 209 183 182 211 198 199 194 231 242 253 258 297 308 313 305 294 274 268 254 235 224 224 234 230 228 227 228 230 230 228 229 227 225 224 228 233
226 164 198 129 223 236 222 230 202 198 209 198 199 199 206 246 252 254 274 282 285 299 301 298 273 265 265 247 234 236 240 237 231 226 227 228 227 226 226 227 229 229 230 232
196 155 192 264 256 272 249 218 234 226 186 182 183 200 223 225 257 233 255 262 267 286 297 294 276 264 267 269 254 245 240 237 229 228 230 228 226 222 226 228 228 228 235 235
189 186 191 232 205 224 212 154 136 133 166 201 210 245 244 216 239 246 260 271 272 276 288 287 289 280 278 275 265 257 247 236 229 223 223 222 219 221 223 227 232 237 244 243
Height
829 848 853 844 840 839 840 844 852 850 844 850 855 853 847 851 854 858 861 862 862 861 860 864 866 869 873 875 876 877 878 878 878 878 879 880 879 879 879 878 877 875 873 872
840 847 838 833 834 838 840 845 850 846 845 851 850 847 838 841 842 844 849 855 855 857 859 862 863 865 867 870 871 873 874 875 875 876 877 877 877 877 877 876 875 874 873 871
843 841 832 834 838 840 843 848 849 850 846 845 849 848 832 834 837 841 843 843 847 849 854 856 858 859 862 864 866 868 870 872 873 874 874 874 875 874 875 875 874 873 871 870
843 839 839 840 842 841 851 845 844 847 858 865 848 870 838 831 837 838 840 840 841 843 845 847 849 853 856 860 863 865 867 869 870 871 872 872 872 872 872 872 871 870 869 869
845 843 843 846 848 845 850 845 847 848 857 860 854 871 845 832 835 834 835 834 834 836 838 842 844 846 850 854 858 862 864 866 868 869 869 870 870 870 870 869 868 867 867 866
843 839 844 847 844 845 847 851 853 854 866 875 851 857 846 838 822 818 822 825 826 829 833 835 838 843 847 851 854 858 860 863 865 867 867 867 867 867 867 867 865 865 865 864
847 848 846 844 851 848 851 862 878 866 875 865 841 853 833 812 806 806 811 817 820 822 826 831 834 840 843 846 850 854 857 859 861 863 864 864 864 864 864 863 863 863 862 861
860 860 853 847 850 853 853 860 878 860 872 862 846 855 820 805 805 803 803 808 815 819 821 823 826 831 836 841 846 849 852 855 857 858 859 860 860 860 860 860 860 859 859 858
852 852 851 851 851 852 851 863 853 862 863 868 854 826 809 805 806 805 807 811 813 813 815 817 820 823 827 832 837 842 846 850 851 853 855 855 856 856 856 856 857 856 855 855
835 852 851 853 850 851 853 854 863 872 871 861 852 834 824 812 811 812 811 810 810 809 810 812 815 817 821 825 831 836 840 842 846 849 850 851 851 852 852 853 853 852 852 852
831 845 856 853 858 854 860 860 859 864 872 878 872 843 807 800 799 805 808 806 806 806 806 807 809 812 816 820 824 828 833 837 841 844 845 846 847 848 849 849 849 849 848 848
831 847 857 853 848 845 844 845 853 886 859 874 891 852 800 789 790 795 794 794 796 797 799 801 803 807 811 815 819 822 825 829 832 836 838 840 842 844 844 845 845 846 845 845
834 849 862 854 851 848 851 845 841 854 872 867 884 846 794 793 792 791 791 790 791 791 794 797 800 802 805 808 812 816 820 822 826 829 831 834 837 839 839 840 841 841 842 841
833 844 847 856 839 837 844 842 844 848 887 867 856 827 796 797 798 794 791 786 786 785 785 788 794 795 798 801 805 809 814 818 821 824 826 828 830 833 834 836 836 837 837 837
838 847 836 832 829 830 829 831 841 850 837 841 808 826 797 797 796 790 786 784 782 782 783 783 785 788 792 796 799 803 807 811 815 818 821 822 825 828 830 831 832 833 832 832
837 841 829 831 824 826 827 826 829 830 824 830 820 816 790 786 787 786 786 782 779 776 773 775 778 782 785 788 791 796 799 804 808 811 814 818 821 823 825 826 827 828 828 828
838 842 844 846 827 827 832 819 815 811 813 808 819 789 786 787 788 785 784 782 776 771 770 772 772 773 776 779 783 787 791 797 801 804 807 811 814 816 818 821 822 822 823 823
832 838 852 855 831 845 801 791 791 796 788 795 789 783 780 781 782 783 782 781 775 772 768 766 766 767 768 771 776 781 785 790 794 796 799 803 807 810 812 814 815 817 818 818
816 833 855 854 851 819 797 787 792 793 784 778 779 775 773 778 780 779 776 776 773 771 768 765 760 759 761 764 768 774 779 783 787 788 791 795 800 803 806 808 809 811 813 813
820 825 837 866 855 835 795 780 780 780 798 768 769 770 771 777 790 786 774 772 770 769 768 764 760 758 759 761 764 768 770 775 778 781 784 789 794 797 799 801 804 806 807 808
831 847 841 845 847 817 786 779 781 799 785 768 768 770 774 779 778 772 772 769 766 764 763 762 761 760 758 760 762 763 765 765 769 774 779 783 787 790 793 796 798 800 801 803
815 829 842 850 846 816 774 782 789 776 766 766 767 768 770 771 770 770 769 768 765 764 761 759 758 757 758 760 761 760 760 762 766 770 774 777 781 784 787 790 792 794 796 797
798 788 803 800 789 765 766 761 762 765 767 765 766 765 765 767 768 767 767 765 764 763 761 759 757 754 753 755 756 756 755 759 762 765 768 771 775 778 781 783 785 788 789 791
771 771 777 780 765 763 756 755 755 757 759 760 761 762 764 766 765 765 765 763 761 758 757 756 754 753 751 750 750 749 752 755 758 759 761 764 768 771 775 777 779 780 782 783
762 765 767 765 754 752 749 750 748 749 752 756 757 758 759 761 760 760 759 757 755 753 752 752 751 747 744 746 746 744 745 749 750 753 755 757 761 764 766 769 771 772 773 775
752 755 758 748 744 741 745 744 745 748 749 751 753 753 753 755 756 755 755 752 750 748 746 746 745 744 740 739 738 739 741 742 743 745 747 749 753 756 758 762 764 767 768 771